TimePST,TemperatureF,Dew PointF,Humidity,Sea Level PressureIn,VisibilityMPH,Wind Direction,Wind SpeedMPH,Gust SpeedMPH,PrecipitationIn,Events,Conditions,WindDirDegrees,DateUTC
12:53 AM,50.0,45.0,83,30.12,9.0,East,3.5,-,N/A,,Clear,90,2011-11-25 08:53:00
1:53 AM,48.9,44.1,83,30.13,10.0,East,4.6,-,N/A,,Clear,90,2011-11-25 09:53:00
2:53 AM,48.9,45.0,86,30.13,10.0,Calm,Calm,-,N/A,,Clear,0,2011-11-25 10:53:00
4:53 AM,48.9,45.0,86,30.13,10.0,ESE,3.5,-,N/A,,Clear,120,2011-11-25 12:53:00
5:53 AM,48.9,45.0,86,30.15,8.0,Calm,Calm,-,N/A,,Clear,0,2011-11-25 13:53:00
6:53 AM,46.9,43.0,86,30.17,6.0,Calm,Calm,-,N/A,,Clear,0,2011-11-25 14:53:00
8:53 AM,57.0,46.9,69,30.18,9.0,ESE,3.5,-,N/A,,Clear,110,2011-11-25 16:53:00
9:53 AM,61.0,48.0,62,30.20,10.0,Calm,Calm,-,N/A,,Clear,0,2011-11-25 17:53:00
10:53 AM,64.9,48.0,54,30.18,10.0,Calm,Calm,-,N/A,,Clear,0,2011-11-25 18:53:00
11:53 AM,68.0,46.0,45,30.16,10.0,Calm,Calm,-,N/A,,Clear,0,2011-11-25 19:53:00
1:53 PM,69.1,48.9,49,30.14,10.0,Variable,4.6,-,N/A,,Clear,0,2011-11-25 21:53:00
2:53 PM,68.0,48.9,50,30.14,10.0,Calm,Calm,-,N/A,,Clear,0,2011-11-25 22:53:00
3:53 PM,64.9,52.0,63,30.14,10.0,SSW,3.5,-,N/A,,Clear,210,2011-11-25 23:53:00
4:00 PM,64.4,51.8,64,30.15,10.0,SSW,5.8,-,N/A,,Partly Cloudy,210,2011-11-26 00:00:00
4:53 PM,63.0,52.0,67,30.15,10.0,Calm,Calm,-,N/A,,Clear,0,2011-11-26 00:53:00
5:53 PM,61.0,51.1,70,30.17,10.0,Calm,Calm,-,N/A,,Clear,0,2011-11-26 01:53:00
6:53 PM,57.9,52.0,81,30.19,10.0,Calm,Calm,-,N/A,,Clear,0,2011-11-26 02:53:00
7:53 PM,57.0,51.1,81,30.20,9.0,Calm,Calm,-,N/A,,Clear,0,2011-11-26 03:53:00
8:53 PM,54.0,48.9,83,30.22,7.0,Calm,Calm,-,N/A,,Clear,0,2011-11-26 04:53:00
9:53 PM,53.1,48.0,83,30.22,7.0,Calm,Calm,-,N/A,,Clear,0,2011-11-26 05:53:00
10:53 PM,52.0,46.9,83,30.23,8.0,Calm,Calm,-,N/A,,Clear,0,2011-11-26 06:53:00
11:53 PM,50.0,46.0,86,30.22,7.0,East,3.5,-,N/A,,Clear,80,2011-11-26 07:53:00